Regional Weather Roundup
Issued by NWS Kansas City/Pleasant Hill, MO

Home | Current Version | Previous Version | Text Only | Print | Product List | Glossary On
Versions: 1 2 3 4 5 6 7 8 9 10 11 12 13 14 15 16 17 18 19 20 21 22 23 24 25 26 27 28 29 30 31 32 33 34 35 36 37 38 39 40 41 42 43 44 45 46 47 48 49 50
000
ASUS43 KEAX 191210
RWREAX

WEATHER ROUNDUP FOR EASTERN KANSAS AND NORTHWEST MISSOURI
NATIONAL WEATHER SERVICE KANSAS CITY/PLEASANT HILL MO
700 AM CDT TUE SEP 19 2017

KSZ040-057-103>105-MOZ028-029-037-043-191300-
...KANSAS CITY METROPOLITAN AREA...

CITY           SKY/WX    TMP DP  RH WIND       PRES   REMARKS
K.C. INTL      CLOUDY    66  66 100 S9        29.88F
6HR MIN TEMP:  66; 6HR MAX TEMP:  70; 6HR PCP:  1.17;

K.C. DOWNTOWN    N/A     69  68  96 E3        29.87F
6HR MIN TEMP:  69; 6HR MAX TEMP:  70; 6HR PCP:  0.01;

LEES SUMMIT    MOCLDY    66  66 100 CALM      29.89F
6HR MIN TEMP:  65; 6HR MAX TEMP:  67; 6HR PCP: TRACE;

OLATHE - IXD   PTCLDY    66  65  96 E7        29.90R
6HR MIN TEMP:  66; 6HR MAX TEMP:  69; 6HR PCP:  0.01;

OLATHE - OJC   CLOUDY    66  66 100 SE6       29.90R
6HR MIN TEMP:  64; 6HR MAX TEMP:  66; 6HR PCP:  0.05;

LAWRENCE       CLOUDY    67  67 100 E6        29.88R

$$

MOZ001>008-011>017-020>025-030>033-038>040-044>046-053-054-191300-
...NORTHERN AND CENTRAL MISSOURI...

CITY           SKY/WX    TMP DP  RH WIND       PRES   REMARKS
ST. JOSEPH     CLEAR     65  65 100 CALM      29.87S FOG
6HR MIN TEMP:  65; 6HR MAX TEMP:  67;

MOSBY          CLOUDY    66  66 100 SE6       29.89F VSB 1
WARRENSBURG    TSTM      64  63  94 SE7       29.93R
WHITEMAN AFB   CLOUDY    66 N/A N/A SW9       29.93R THUNDER
6HR MIN TEMP:  64; 6HR MAX TEMP:  67;

CLINTON        LGT RAIN  66  66 100 S3        29.92F
SEDALIA        CLEAR     63  63 100 S5        29.94R FOG
6HR MIN TEMP:  62; 6HR MAX TEMP:  64;

WARSAW         NOT AVBL
CHILLICOTHE      N/A     64  64 100 S3        29.92R
6HR MIN TEMP:  61; 6HR MAX TEMP:  65;

KIRKSVILLE     FOG       64  64 100 E5        29.93F VSB 1/4
6HR MIN TEMP:  62; 6HR MAX TEMP:  64;


$$

MOZ041-047>049-056>058-063>065-088>090-097-191300-
...EASTERN AND SOUTHERN MISSOURI...

CITY           SKY/WX    TMP DP  RH WIND       PRES   REMARKS
ST. LOUIS INTL FOG       66  66 100 CALM      29.95R VSB 1/2
6HR MIN TEMP:  66; 6HR MAX TEMP:  70;

SPIRIT OF STL  FOG       65  65 100 CALM      29.94R VSB<1/4
COLUMBIA       FOG       64  64 100 SE5       29.94S VSB 1/4
JEFFERSON CITY FOG       63  62  97 CALM      29.93S VSB 1/4
ROLLA          CLEAR     63  63 100 SE6       29.96R FOG
OSAGE BEACH    FOG       63  63 100 CALM      29.94S VSB<1/4
SPRINGFIELD    CLEAR     67  67 100 SE7       29.94S
BRANSON        PTCLDY    64  64 100 SE3       29.97S FOG
JOPLIN         MOCLDY    67  67 100 S6        29.92R
WEST PLAINS    FOG       61  60  97 CALM      29.98S VSB 1/4

$$

IAZ060-094-KSZ022-034>040-054-083-096-NEZ052-066-093-191300-
...KANSAS...SOUTHEAST NEBRASKA AND IOWA...

CITY           SKY/WX    TMP DP  RH WIND       PRES   REMARKS
TOPEKA         MOCLDY    67  67 100 E6        29.86R
6HR MIN TEMP:  66; 6HR MAX TEMP:  69;

MANHATTAN      CLEAR     67  65  93 CALM      29.82S
EMPORIA        MOCLDY    67  64  90 S12       29.86R
CHANUTE        PTCLDY    66  64  93 SE6       29.89R
WICHITA        PTCLDY    69  66  90 S13       29.84S
OMAHA          CLOUDY    68  64  87 SE13      29.83R FOG
LINCOLN        CLEAR     67  64  90 SE10      29.81S
FALLS CITY     PTCLDY    65  65 100 SE5       29.84R FOG
LAMONI         FOG       64  64 100 SE7       29.90S VSB 1/2
DES MOINES     FOG       63  63 100 E6        29.89S VSB 1/4

$$




USA.gov is the U.S. government's official web portal to all federal, state and local government web resources and services.